Tracking 19396 objects as of 13-Dec-2018
HD Live streaming from Space Station
objects crossing your sky now

CZ-4C DEB

Track CZ-4C DEB now!
10-day predictions


NORAD ID: 39231
Int'l Code: 2013-037H
Perigee: 676.7 km
Apogee: 1,045.3 km
Inclination: 98.1 °
Period: 102.0 minutes
Semi major axis: 7232 km
RCS: Unknown
Launch date: July 19, 2013
Source: People's Republic of China (PRC)
Launch site: Taiyaun Space Center, China (TSC)

Note: This is SATELLITE DEBRIS
aabbcc
Your satellite tracking list
Your tracking list is empty




NASA's NSSDC Master Catalog

Two Line Element Set (TLE):
1 39231U 13037H   18346.40928740  .00000105  00000-0  60214-4 0  9991
2 39231  98.1025 205.3746 0254790 269.2865  87.9111 14.11609669272839
Source of the keplerian elements: AFSPC